Hourly Data Report for October 30, 2013

All times are specified in Local Standard Time (LST). Add 1 hour to adjust for Daylight Saving Time where and when it is observed.

FORT LIARD
NORTHWEST TERRITORIES

60°14'00.000" N
123°28'00.000" W
213.40 m
2201579
71497
WJL

Download Data

Hourly Data (October 2013)
Hourly Data Report for October 30, 2013
Temp Definition
°C
Dew Point Temp Definition
°C
Rel Hum Definition
%
Wind Dir Definition
10's deg

Wind Spd Definition
km/h
Visibility Definition
km
Stn Press Definition
kPa
Hmdx Definition


Wind Chill Definition


Weather Definition


TIME
00:00 9.2 -3.6 40 27 11   97.53     LegendNANA
01:00 7.6 -3.5 45 23 7   97.60     LegendNANA
02:00 7.2 -3.6 46 17 13   97.62     LegendNANA
03:00 6.3 -3.5 49 18 13   97.62     LegendNANA
04:00 6.9 -3.3 48 18 15   97.64     LegendNANA
05:00 8.3 -3.8 42 24 7   97.62     LegendNANA
06:00 3.7 -3.3 60 17 2   97.62     LegendNANA
07:00 0.6 -3.2 76   0   97.65     LegendNANA
08:00 6.0 -3.0 52 25 15   97.59     LegendNANA
09:00 3.7 -3.2 61 21 6   97.62     LegendNANA
10:00 6.9 -3.1 49 23 15   97.59     LegendNANA
11:00 7.7 -2.7 48 19 13   97.57     LegendNANA
12:00 8.8 -3.4 42 24 15   97.55     LegendNANA
13:00 9.0 -3.5 41 24 17   97.50     LegendNANA
14:00 9.2 -3.2 41 24 15   97.46     LegendNANA
15:00 10.4 -3.6 37 16 9   97.41     LegendNANA
16:00 9.3 -3.7 40 22 9   97.37     LegendNANA
17:00 8.6 -3.7 42 21 7   97.31     LegendNANA
18:00 5.7 -3.2 53 21 6   97.27     LegendNANA
19:00 3.6 -3.0 62 23 6   97.22     LegendNANA
20:00 3.0 -3.0 65 23 4   97.16     LegendNANA
21:00 1.3 -3.0 73 21 6   97.12     LegendNANA
22:00 0.8 -2.9 76 22 7   97.12     LegendNANA
23:00 0.5 -2.9 78 22 6   97.13     LegendNANA

Notes on Data Quality.

Legend

  • E = Estimated
  • M = Missing
  • NA = Not Available
  • ‡ = Partner data that is not subject to review by the National Climate Archives
Date modified: